Probability
0 0 0 0 0 0 0 0 0 0 0 0 0 0 0 0 0 0 0 0 0 0 0 0 0 0 0 0 0 0 0 0 0 0 0 0 1 2 3 3 3 3 3 2 1 0 0 0 0
0 0 0 0 0 0 0 0 0 0 0 0 0 0 0 0 0 0 0 0 0 0 0 0 0 0 0 0 0 0 0 0 0 0 0 0 1 2 3 3 3 3 3 2 1 0 0 0 0
0 0 0 0 0 0 0 0 0 0 0 0 0 0 0 0 0 0 0 0 0 0 0 0 0 0 0 0 0 0 0 0 0 0 0 0 1 2 3 2 2 2 2 2 1 0 0 0 0
0 0 0 0 0 0 0 0 0 0 0 0 0 0 0 0 0 0 0 0 0 0 0 0 0 0 0 0 0 0 0 0 1 1 1 0 1 1 2 2 1 1 1 1 0 0 0 0 0
0 0 0 0 0 0 0 0 0 0 0 0 0 0 0 0 0 0 0 0 0 0 0 0 0 0 0 0 0 0 0 0 1 1 1 0 0 1 2 2 2 1 0 0 0 0 0 0 0
0 0 0 0 0 0 0 0 0 0 0 0 0 0 0 0 0 0 0 0 0 0 0 0 0 0 0 0 0 0 0 0 0 0 0 0 1 2 3 3 3 2 1 0 0 0 0 0 0
0 0 0 0 0 0 0 0 0 0 0 0 0 0 0 0 0 0 0 0 0 0 0 0 0 0 0 0 0 0 0 0 0 0 0 0 1 3 3 3 3 2 1 0 0 0 0 0 0
0 0 0 0 0 0 0 0 0 0 0 0 0 0 0 1 1 1 1 0 0 0 0 0 0 0 0 0 0 0 0 0 0 0 0 1 2 3 3 3 3 2 1 0 1 1 1 0 0
0 0 0 0 0 0 0 0 0 0 0 0 0 0 1 2 2 2 1 0 0 0 0 0 0 0 0 0 0 0 0 0 0 0 1 2 3 3 3 3 3 2 1 1 1 2 2 1 0
0 0 0 0 0 0 0 0 0 0 0 0 0 0 1 3 3 2 1 0 0 0 0 0 0 0 0 0 0 0 0 0 0 0 1 2 2 1 1 2 2 2 1 1 1 1 2 1 0
0 0 0 0 0 0 0 0 0 0 0 0 0 1 2 3 3 1 0 0 0 0 0 0 0 0 0 0 0 0 0 0 0 0 1 1 1 1 0 1 1 1 1 1 1 1 2 2 1
0 0 0 0 0 0 0 0 0 0 0 0 1 2 3 3 2 1 0 0 0 0 0 0 0 0 0 0 0 0 0 0 1 1 1 1 2 1 0 0 0 1 2 2 2 2 2 2 1
0 0 0 0 0 0 0 0 0 0 0 0 1 1 2 3 3 1 0 0 0 0 0 0 0 0 0 0 0 0 0 1 2 2 1 2 2 1 0 0 0 1 2 3 3 3 2 1 0
0 0 0 0 0 0 0 0 0 0 0 0 0 0 1 2 3 2 1 0 0 0 0 0 0 0 0 0 0 0 1 2 3 3 3 3 2 1 0 0 0 1 2 3 3 2 1 0 0
0 0 0 0 0 0 0 0 0 0 0 0 0 0 0 2 3 2 1 0 0 0 0 0 0 0 0 0 0 0 1 2 3 3 3 3 2 1 1 1 1 1 2 3 2 1 1 1 0
0 0 0 0 0 0 0 0 0 0 0 0 0 0 1 2 2 1 0 0 0 0 0 0 0 0 0 0 0 0 1 1 3 3 3 2 1 1 1 1 2 1 1 2 1 1 2 1 1
0 0 0 0 0 0 0 0 0 0 0 0 0 1 2 2 2 1 1 0 1 1 1 1 0 0 0 0 0 1 1 1 3 3 3 2 2 2 2 1 1 1 1 1 1 1 2 1 0
0 0 0 0 0 0 0 0 0 0 0 0 0 1 1 1 1 2 2 1 1 2 2 2 1 1 1 1 1 2 2 3 3 3 3 3 3 2 1 0 0 0 1 2 2 2 1 1 0
0 0 0 0 0 0 0 0 0 0 0 0 0 0 0 0 0 1 2 2 2 2 2 2 2 3 4 4 3 3 3 3 4 3 3 3 3 2 1 0 0 0 1 2 2 2 1 0 0
0 0 0 0 0 0 0 0 0 0 0 0 0 0 0 0 0 0 1 2 1 1 1 2 3 4 5 4 3 3 3 4 5 4 3 3 3 3 1 0 0 0 0 1 1 1 0 0 0
0 0 0 0 0 0 0 0 0 0 0 0 0 0 0 0 0 0 0 0 0 0 0 1 2 4 5 5 4 4 4 6 6 5 4 3 3 3 2 1 0 0 0 0 0 0 0 0 0
0 0 0 0 0 0 0 0 0 0 0 0 0 0 0 0 0 0 0 0 0 0 1 1 2 4 6 6 6 6 6 7 7 5 3 3 3 3 3 2 1 0 0 0 0 0 0 0 0
0 0 0 0 0 0 0 0 0 0 0 0 0 0 0 0 0 0 0 0 0 1 2 3 4 5 6 6 6 6 7 7 6 4 2 1 2 3 3 2 1 0 0 0 0 0 0 0 0
0 0 0 0 0 0 0 0 0 0 0 0 0 0 0 0 1 1 1 1 1 2 3 4 5 6 6 6 6 5 6 6 4 3 1 1 1 2 2 1 1 0 0 0 0 0 0 0 0
0 0 0 0 0 0 0 0 0 0 0 0 0 0 0 0 1 2 2 2 1 2 3 4 5 6 6 5 4 3 4 4 3 1 1 0 0 0 0 0 0 0 0 0 0 0 0 0 0
0 0 0 0 0 0 0 0 0 0 0 0 0 0 0 0 1 2 3 2 1 2 3 3 4 4 4 4 3 3 3 3 2 1 0 0 0 0 0 0 0 0 0 0 0 0 0 0 0
0 0 0 0 0 0 0 0 0 0 0 0 0 0 0 0 0 1 2 1 0 1 3 3 3 3 3 3 3 3 3 3 3 1 1 0 0 0 0 0 0 0 0 0 0 0 0 0 0
0 0 0 0 0 0 0 0 0 0 0 0 0 0 0 0 0 0 0 0 0 1 2 3 3 3 3 3 3 3 3 3 3 3 2 1 0 0 0 0 0 0 0 0 0 1 0 0 0
0 0 0 0 0 0 0 0 0 0 0 0 0 0 0 0 0 0 0 0 0 0 1 3 3 3 3 3 3 3 3 3 3 3 2 1 0 0 0 0 0 0 0 0 0 0 0 0 0
0 0 0 0 0 0 0 0 0 0 0 0 0 0 0 0 0 0 0 0 0 0 1 2 3 3 3 3 3 3 3 3 3 3 1 0 0 0 0 0 0 0 0 0 0 0 0 0 0
Wind_Speed
2 1 2 2 1 5 8 6 5 5 6 7 6 6 7 8 7 7 4 4 4 5 5 6 7 7 7 8 9 9 9 9 9 9 9 9 9 9 9 10 9 9 9 9 9 9 9 9 8
0 0 1 1 1 6 8 6 7 7 6 5 5 6 7 8 7 7 4 4 4 5 5 7 7 7 8 8 9 9 9 9 9 9 9 9 9 9 9 10 10 10 10 9 9 9 8 9 9
1 1 1 1 4 5 8 6 7 7 6 3 5 6 6 6 5 5 4 3 4 5 6 8 7 7 8 8 9 9 9 9 9 9 9 9 9 9 9 10 10 10 10 9 9 9 9 9 9
1 1 1 5 10 8 7 7 6 7 5 4 5 7 7 6 4 5 5 4 5 6 6 8 7 7 8 9 9 9 9 9 9 9 9 9 9 10 10 10 10 10 10 9 9 9 9 9 10
0 1 5 8 10 8 7 6 6 6 6 6 5 8 8 6 5 6 5 5 5 6 6 8 8 8 8 8 9 9 9 9 9 10 10 10 10 10 10 10 9 9 9 10 10 10 10 10 10
1 1 5 8 10 8 7 6 6 7 8 6 6 7 7 5 5 5 5 5 6 6 6 7 8 8 8 8 9 9 9 9 9 9 9 9 9 9 9 10 9 9 10 10 11 11 11 11 11
2 3 6 9 9 8 6 5 6 7 7 6 4 6 7 5 4 4 5 5 5 5 5 5 5 7 7 8 8 9 10 9 9 9 9 8 8 9 9 9 10 10 10 11 11 11 11 11 11
1 4 8 7 8 8 6 5 5 6 8 5 3 5 6 5 5 5 5 5 5 5 5 4 5 5 5 7 8 8 9 9 8 8 7 6 6 7 7 8 9 9 10 10 10 11 11 11 11
1 4 7 6 6 8 7 7 6 5 7 6 6 7 7 7 6 6 5 5 5 5 4 3 4 5 5 6 6 5 6 6 4 5 4 2 4 5 5 9 9 9 9 9 9 10 9 8 9
2 4 7 6 6 8 8 6 6 6 7 6 6 7 7 7 6 5 5 5 5 5 4 3 4 4 4 4 4 3 4 4 5 5 4 4 4 5 5 7 7 8 7 8 8 7 5 3 5
5 7 8 7 7 7 8 7 5 5 5 4 5 7 7 6 5 4 4 5 4 4 4 4 3 3 3 3 3 2 3 3 4 5 5 4 4 3 3 3 4 4 4 5 5 3 4 5 5
8 8 7 7 6 6 6 6 5 4 4 4 5 7 7 6 5 4 4 4 3 3 3 3 3 3 3 3 3 2 3 3 3 4 5 4 3 3 3 3 4 3 3 4 3 3 5 6 6
9 8 8 8 7 6 6 5 5 4 4 4 6 6 6 5 4 4 4 3 3 3 2 3 2 3 3 3 2 2 3 3 4 4 4 5 3 3 3 3 3 4 3 3 3 3 5 5 6
8 8 8 6 6 5 6 5 4 4 4 5 6 5 5 4 3 3 3 3 2 2 2 2 2 2 2 2 2 3 3 2 3 4 4 5 4 3 3 3 3 3 3 3 3 4 4 4 4
8 9 7 4 3 3 4 4 3 3 3 5 5 4 4 3 3 2 2 2 2 2 2 2 1 2 2 2 2 2 2 2 3 3 4 5 4 4 3 3 3 3 3 3 3 4 3 3 4
6 6 5 4 2 3 4 3 4 2 3 4 4 4 4 3 2 2 1 1 1 1 2 2 1 1 2 2 2 2 2 2 3 3 3 4 4 4 3 3 4 4 3 3 3 2 3 3 3
5 4 4 4 2 3 3 2 3 2 3 3 3 3 3 3 2 1 1 1 1 1 1 2 2 1 1 1 1 2 2 2 2 2 2 3 4 4 3 3 3 4 3 3 3 3 2 3 3
4 4 4 4 3 3 3 2 2 3 3 3 3 3 3 3 2 1 1 1 1 1 1 2 2 1 1 1 1 1 1 2 2 2 2 3 3 3 3 2 3 4 3 3 3 3 3 3 2
2 3 3 2 2 3 4 3 3 3 4 4 4 4 4 3 2 2 1 1 1 1 1 1 1 1 1 1 0 0 1 1 2 2 2 3 3 3 3 2 2 2 2 3 3 3 3 3 2
3 4 3 3 2 3 3 4 3 4 5 4 5 4 4 3 3 2 2 2 1 1 1 1 1 1 1 0 0 0 0 1 1 1 2 2 3 2 2 2 2 2 2 3 3 2 2 2 2
3 3 3 2 2 4 5 5 5 4 4 4 4 4 4 4 4 3 3 2 2 1 1 0 0 1 1 1 1 1 1 1 1 1 1 2 2 2 2 2 2 2 2 2 2 2 2 1 1
3 2 4 4 5 3 4 4 2 3 4 4 4 5 5 4 4 3 3 3 2 1 1 1 0 0 1 1 1 1 1 0 1 1 1 1 1 1 2 1 1 1 1 1 1 1 1 1 1
1 0 3 5 6 5 5 6 1 2 3 3 3 4 4 4 4 4 4 3 2 2 1 1 1 1 1 0 1 1 0 0 0 0 0 1 1 1 1 1 1 0 0 1 1 1 1 0 1
3 4 4 5 6 7 4 5 2 1 2 3 2 3 4 4 4 4 4 3 2 2 2 2 1 1 1 0 1 1 1 0 0 0 0 0 1 0 1 1 1 1 1 1 1 1 1 1 1
4 5 4 5 5 3 1 5 3 2 2 4 3 2 3 4 4 4 4 4 3 3 2 2 2 2 1 1 1 0 0 1 1 1 1 1 1 0 0 1 1 1 1 1 1 1 1 1 1
4 6 4 4 3 2 3 5 0 2 2 2 2 2 2 3 4 4 4 4 4 3 3 3 2 2 2 1 1 1 0 1 1 1 1 2 1 1 1 1 1 1 1 1 1 2 1 2 2
3 3 4 6 5 6 4 3 2 1 0 1 2 1 1 2 3 4 4 4 4 4 4 3 3 2 2 2 1 1 1 1 1 2 2 2 2 2 2 2 1 1 2 2 2 2 2 2 2
3 2 4 5 5 6 4 5 2 1 2 2 2 1 1 1 2 3 3 4 4 4 4 4 3 3 2 2 1 1 1 2 1 1 2 2 2 2 2 2 2 2 2 2 2 2 2 3 2
4 4 5 4 5 6 5 1 2 1 2 3 3 2 1 2 2 2 2 3 3 3 3 3 3 3 2 2 2 2 2 2 2 1 2 2 2 2 2 2 2 2 2 3 2 3 3 3 3
5 5 6 6 5 6 6 3 3 1 2 3 3 2 2 2 2 1 2 2 3 3 3 3 3 3 3 2 2 2 2 2 2 2 2 2 2 2 2 2 2 2 3 3 3 3 3 3 3
Wind_Direction
172 159 225 238 172 93 83 82 84 90 77 67 66 66 68 52 40 68 71 49 40 51 57 66 46 44 50 57 61 61 62 61 60 59 60 63 65 64 62 64 64 64 62 62 62 60 59 59 57
13 234 238 271 129 108 92 94 91 77 90 97 84 75 77 72 60 81 83 61 58 63 61 57 50 50 51 57 60 60 60 58 56 57 58 61 63 64 63 62 61 62 61 61 61 62 60 60 61
108 311 357 64 74 82 101 103 99 98 96 96 94 66 59 66 68 76 73 87 84 74 66 67 50 53 54 59 60 57 57 55 54 56 59 59 62 63 61 62 61 62 60 59 61 63 63 64 64
246 154 93 89 89 74 92 108 116 120 102 80 96 90 81 58 59 79 95 93 87 80 73 72 51 58 56 58 59 56 56 55 55 58 60 59 61 63 62 60 61 64 62 60 61 63 64 65 63
334 111 115 103 92 89 92 99 113 104 97 91 91 96 92 72 76 90 98 91 83 80 76 78 60 58 58 57 56 54 56 56 56 58 61 61 61 62 61 59 60 63 63 62 63 61 63 64 62
110 141 127 113 106 102 100 100 111 99 96 97 98 100 88 82 86 88 90 83 78 77 77 84 83 65 61 57 55 54 56 58 58 60 62 63 63 62 60 59 60 62 65 65 65 61 63 63 62
99 109 111 119 120 111 100 97 95 100 99 88 87 96 104 95 90 99 96 89 82 78 74 72 83 91 86 66 56 55 53 53 56 60 62 63 64 62 59 60 59 62 64 66 67 62 63 63 61
64 122 122 123 126 111 112 108 91 88 89 80 68 82 98 108 117 112 98 91 83 78 74 72 71 70 79 85 69 57 54 50 52 57 57 62 79 77 67 66 60 61 63 66 68 65 64 64 61
177 135 122 121 126 115 123 119 104 90 100 93 74 68 85 116 129 117 104 96 84 75 71 72 74 70 67 66 72 74 71 54 53 73 73 72 64 65 74 60 58 60 63 67 69 69 68 70 73
107 111 101 103 114 119 120 110 118 124 107 105 99 92 108 126 129 117 104 95 89 84 75 65 66 69 69 65 66 53 56 51 39 42 57 52 55 54 54 82 66 64 69 78 72 72 82 62 64
84 96 107 107 109 119 119 109 106 123 105 105 114 121 128 131 125 114 100 85 81 81 73 66 63 63 65 68 59 48 44 42 36 33 47 46 56 61 52 61 76 69 70 68 76 72 58 59 55
104 98 107 111 112 117 116 114 105 84 85 89 107 123 134 137 129 119 105 90 86 76 69 65 60 63 63 62 59 50 47 41 39 27 41 44 46 48 51 49 47 48 52 53 52 48 54 57 59
112 111 108 109 111 110 111 107 101 85 87 103 114 126 133 134 127 120 110 106 102 94 77 71 62 53 60 62 47 54 50 38 51 40 36 46 45 52 55 59 51 48 48 59 56 51 53 53 54
114 120 118 119 120 118 114 100 100 85 109 121 122 128 134 131 128 121 116 108 100 99 87 85 68 59 57 65 70 56 47 50 45 41 37 47 50 52 48 55 54 50 44 44 51 57 53 52 52
133 129 125 115 122 133 146 109 90 89 136 136 135 135 128 125 133 136 124 108 91 85 90 90 75 62 60 54 58 55 43 49 46 39 34 48 50 52 49 40 47 45 45 53 50 59 52 55 56
154 158 148 127 147 164 207 126 103 106 161 148 143 142 146 138 133 129 138 135 102 98 95 102 111 80 66 57 61 61 56 45 45 39 31 38 48 48 51 44 43 41 40 44 49 48 52 55 50
176 170 152 146 155 181 208 149 122 143 182 170 167 165 167 154 138 131 165 188 147 119 114 119 121 109 98 79 77 65 65 52 44 41 33 28 42 45 53 45 43 48 43 40 38 47 44 50 45
169 169 166 166 147 188 202 195 155 178 207 202 194 194 188 179 168 168 151 201 203 172 139 119 118 138 128 123 76 87 69 57 50 45 32 32 37 41 55 55 50 54 56 48 42 48 50 46 37
175 185 178 154 150 215 221 233 214 204 214 225 215 211 208 200 172 166 172 185 199 184 169 130 162 151 145 129 103 64 73 54 56 50 42 47 50 49 56 47 54 48 55 52 51 53 60 54 28
199 207 192 168 170 240 246 252 229 209 222 234 237 223 216 202 186 175 180 167 188 159 147 156 169 163 142 130 74 58 75 63 60 59 63 54 55 48 40 32 52 59 56 58 59 59 34 54 31
210 240 231 234 203 214 255 238 211 193 212 222 236 238 229 220 214 197 188 178 169 170 170 229 232 175 162 156 128 126 132 165 126 98 72 42 41 44 28 17 27 43 50 56 55 51 36 26 41
228 247 241 230 239 229 251 275 217 207 212 212 222 226 224 220 218 207 195 190 183 179 193 217 187 66 117 157 183 213 254 330 15 36 70 87 56 40 21 11 20 42 43 53 47 51 39 17 19
301 217 228 237 255 261 242 264 242 181 225 221 218 222 222 218 215 205 200 199 190 169 165 173 129 88 78 157 174 243 262 19 47 65 62 72 78 39 22 356 355 349 2 5 12 360 344 5 354
171 186 189 222 246 250 260 263 277 181 286 288 248 220 216 212 207 202 190 185 176 163 163 168 159 123 105 136 174 211 216 229 282 328 351 338 103 63 35 344 336 319 324 312 304 285 274 293 317
218 236 228 219 219 234 151 250 268 23 346 313 301 256 219 202 197 192 185 184 178 173 174 175 170 156 154 158 149 151 237 261 257 278 287 293 276 216 325 290 311 316 312 305 279 253 259 257 267
229 256 267 279 274 257 197 243 251 46 357 322 305 286 220 194 191 189 190 190 187 184 185 183 179 177 173 189 198 196 188 263 287 286 289 285 285 283 276 242 266 280 269 269 267 273 266 272 265
220 238 289 281 277 270 233 234 221 127 15 355 342 336 229 194 187 188 190 195 195 192 191 192 192 191 198 211 225 232 236 238 261 280 286 286 289 292 293 265 255 259 251 256 257 268 274 276 279
293 233 227 253 269 265 253 247 247 192 323 345 331 318 267 203 192 184 190 195 198 198 194 191 200 205 209 233 244 251 249 244 249 268 271 271 279 290 285 279 267 269 260 251 254 267 278 272 264
188 207 238 252 266 276 277 250 60 323 328 320 319 314 261 221 209 202 198 199 194 193 195 197 202 207 214 226 243 244 245 247 241 252 266 270 270 264 269 275 276 267 258 250 247 260 265 267 265
259 253 245 258 254 256 275 282 98 290 323 319 314 309 258 225 217 204 203 199 198 197 201 206 208 212 220 229 241 250 251 244 241 243 251 260 261 255 261 268 270 278 272 265 258 258 261 263 266